{"data":{"norad_id":39127,"epoch":"2026-05-25T03:14:03.244128Z","epoch_age_seconds":59312,"freshness":"FRESH","line1":"1 39127U 13014A   26145.13475977 -.00000076  00000+0  00000+0 0  9994","line2":"2 39127   0.0169 339.0547 0001879  77.7599 127.1076  1.00271705 48021","mean_motion":1.00271705,"eccentricity":0.0001879,"inclination_deg":0.0169,"raan_deg":339.0547,"arg_perigee_deg":77.7599,"mean_anomaly_deg":127.1076,"bstar":0,"rev_number":4802,"period_min":1436.0980497938,"perigee_km":35778.69463076,"apogee_km":35794.540145459,"semimajor_km":42164.75438811,"source":"CELESTRAK","updated_at":"2026-05-25T13:38:13.942144Z"}}